This is the latest recevied weather packets stored in our database for station/object WW5JC. If no packets are shown the sender has not sent any weather packets the latest 1 day(s).
| Time | Temp. | Humidity | Pressure | Rain* | Wind** | Luminosity | Snow |
|---|---|---|---|---|---|---|---|
| 1777985518 | 21.11° C | 89% | 1006.4 hPa | 0 mm | 2.68 m/s, 192° | 21 W/m² | - |
| 1777985214 | 21.11° C | 89% | 1006.7 hPa | 0 mm | 3.13 m/s, 205° | 15 W/m² | - |
| 1777984911 | 21.11° C | 89% | 1006.5 hPa | 0 mm | 2.68 m/s, 227° | 13 W/m² | - |
| 1777984607 | 21.11° C | 89% | 1006.7 hPa | 0 mm | 3.13 m/s, 186° | 12 W/m² | - |
| 1777984304 | 21.11° C | 89% | 1006.6 hPa | 0 mm | 3.58 m/s, 192° | 11 W/m² | - |
| 1777984000 | 21.11° C | 89% | 1006.5 hPa | 0 mm | 4.02 m/s, 201° | 8 W/m² | - |
| 1777983698 | 21.11° C | 89% | 1006.5 hPa | 0 mm | 2.68 m/s, 182° | 9 W/m² | - |
| 1777983394 | 21.11° C | 89% | 1006.3 hPa | 0 mm | 3.13 m/s, 240° | 7 W/m² | - |
| 1777983091 | 21.11° C | 88% | 1006.3 hPa | 0 mm | 4.47 m/s, 188° | 6 W/m² | - |
| 1777982787 | 21.11° C | 89% | 1006.3 hPa | 0 mm | 5.36 m/s, 218° | 8 W/m² | - |
| 1777982483 | 21.11° C | 89% | 1006.2 hPa | 0 mm | 2.68 m/s, 200° | 4 W/m² | - |
| 1777982177 | 21.11° C | 88% | 1006.1 hPa | 0 mm | 4.92 m/s, 197° | 5 W/m² | - |
| 1777981875 | 21.11° C | 89% | 1006.4 hPa | 0 mm | 5.36 m/s, 205° | 3 W/m² | - |
| 1777981572 | 21.11° C | 89% | 1006.1 hPa | 0 mm | 3.13 m/s, 183° | 2 W/m² | - |
| 1777981268 | 21.11° C | 89% | 1006.5 hPa | 0 mm | 3.58 m/s, 198° | 1 W/m² | - |
| 1777980965 | 21.11° C | 89% | 1006.1 hPa | 0 mm | 3.13 m/s, 175° | 1 W/m² | - |
| 1777980662 | 21.11° C | 89% | 1006 hPa | 0 mm | 2.68 m/s, 203° | 1 W/m² | - |
| 1777980358 | 21.11° C | 89% | 1006.1 hPa | 0 mm | 2.68 m/s, 178° | 0 W/m² | - |
| 1777980056 | 21.11° C | 89% | 1006 hPa | 0 mm | 3.13 m/s, 205° | 0 W/m² | - |
| 1777979750 | 21.11° C | 89% | 1006.2 hPa | 0 mm | 3.58 m/s, 186° | 0 W/m² | - |
| 1777979446 | 21.11° C | 89% | 1006.2 hPa | 0 mm | 3.13 m/s, 193° | 0 W/m² | - |
| 1777979143 | 21.11° C | 89% | 1006.3 hPa | 0 mm | 3.13 m/s, 195° | 0 W/m² | - |
| 1777978840 | 21.11° C | 89% | 1006.1 hPa | 0 mm | 2.68 m/s, 189° | 0 W/m² | - |
| 1777978537 | 21.11° C | 89% | 1006.1 hPa | 0 mm | 4.02 m/s, 197° | 0 W/m² | - |
| 1777978232 | 21.11° C | 89% | 1005.9 hPa | 0 mm | 3.13 m/s, 171° | 0 W/m² | - |
* Rain latest hour (hover to see other rain measurements)
** Current wind speed in m/s (hover to see current wind gust speed)